Time,TemperatureF,DewpointF,PressureIn,WindDirection,WindDirectionDegrees,WindSpeedMPH,WindSpeedGustMPH,Humidity,HourlyPrecipIn,Conditions,Clouds,dailyrainin,SoftwareType,DateUTC
2013-08-02 00:02:00,62.8,58.2,29.32,SSE,168,9.0,14.0,85,0.00,,,0.00,WeatherCatV1.21B27,2013-08-01 23:02:00,
2013-08-02 00:07:00,62.8,58.2,29.32,SE,141,13.0,13.0,85,0.00,,,0.00,WeatherCatV1.21B27,2013-08-01 23:07:00,
2013-08-02 00:12:00,62.7,58.1,29.32,SSE,166,9.0,14.0,85,0.00,,,0.00,WeatherCatV1.21B27,2013-08-01 23:12:00,
2013-08-02 00:17:00,62.6,58.0,29.32,South,172,11.0,16.0,85,0.00,,,0.00,WeatherCatV1.21B27,2013-08-01 23:17:00,
2013-08-02 00:22:00,62.4,57.8,29.32,SE,135,13.0,14.0,85,0.00,,,0.00,WeatherCatV1.21B27,2013-08-01 23:22:00,
2013-08-02 00:27:00,62.4,58.2,29.32,SSE,167,12.0,19.0,86,0.00,,,0.00,WeatherCatV1.21B27,2013-08-01 23:27:00,
2013-08-02 00:32:00,62.4,57.8,29.32,South,179,13.0,17.0,85,0.00,,,0.00,WeatherCatV1.21B27,2013-08-01 23:32:00,
2013-08-02 00:37:00,62.4,57.5,29.32,SE,136,9.0,19.0,84,0.00,,,0.00,WeatherCatV1.21B27,2013-08-01 23:37:00,
2013-08-02 00:42:00,62.4,57.5,29.31,SSE,158,13.0,13.0,84,0.00,,,0.00,WeatherCatV1.21B27,2013-08-01 23:42:00,
2013-08-02 00:47:00,62.4,57.8,29.32,SSE,156,10.0,13.0,85,0.00,,,0.00,WeatherCatV1.21B27,2013-08-01 23:47:00,
2013-08-02 00:52:00,62.3,57.7,29.31,SSE,147,11.0,18.0,85,0.00,,,0.00,WeatherCatV1.21B27,2013-08-01 23:52:00,
2013-08-02 00:57:00,62.3,57.7,29.31,SE,143,8.0,11.0,85,0.00,,,0.00,WeatherCatV1.21B27,2013-08-01 23:57:00,
2013-08-02 01:02:00,62.1,57.5,29.31,SSE,155,13.0,18.0,85,0.00,,,0.00,WeatherCatV1.21B27,2013-08-02 00:02:00,
2013-08-02 01:07:00,62.1,57.5,29.31,SSE,166,11.0,16.0,85,0.00,,,0.00,WeatherCatV1.21B27,2013-08-02 00:07:00,
2013-08-02 01:12:00,62.0,57.4,29.31,South,171,14.0,20.0,85,0.00,,,0.00,WeatherCatV1.21B27,2013-08-02 00:12:00,
2013-08-02 01:17:00,62.0,57.4,29.31,South,180,17.0,19.0,85,0.00,,,0.00,WeatherCatV1.21B27,2013-08-02 00:17:00,
2013-08-02 01:22:00,62.0,57.4,29.31,South,181,15.0,17.0,85,0.00,,,0.00,WeatherCatV1.21B27,2013-08-02 00:22:00,
2013-08-02 01:27:00,62.0,57.1,29.31,SE,143,16.0,18.0,84,0.00,,,0.00,WeatherCatV1.21B27,2013-08-02 00:27:00,
2013-08-02 01:32:00,62.0,57.1,29.31,SSE,159,13.0,19.0,84,0.00,,,0.00,WeatherCatV1.21B27,2013-08-02 00:32:00,
2013-08-02 01:37:00,62.0,57.1,29.31,ESE,123,13.0,16.0,84,0.00,,,0.00,WeatherCatV1.21B27,2013-08-02 00:37:00,
2013-08-02 01:41:00,61.9,56.7,29.31,SSE,161,11.0,19.0,83,0.00,,,0.00,WeatherCatV1.21B27,2013-08-02 00:41:00,
2013-08-02 01:47:00,61.9,57.0,29.31,South,169,9.0,17.0,84,0.00,,,0.00,WeatherCatV1.21B27,2013-08-02 00:47:00,
2013-08-02 01:52:00,61.8,56.9,29.31,SSE,154,8.0,20.0,84,0.00,,,0.00,WeatherCatV1.21B27,2013-08-02 00:52:00,
2013-08-02 01:57:00,61.7,56.8,29.31,SE,129,15.0,15.0,84,0.00,,,0.00,WeatherCatV1.21B27,2013-08-02 00:57:00,
2013-08-02 02:02:00,61.7,56.8,29.31,South,170,6.0,12.0,84,0.00,,,0.00,WeatherCatV1.21B27,2013-08-02 01:02:00,
2013-08-02 02:07:00,61.6,56.7,29.31,East,89,14.0,14.0,84,0.00,,,0.00,WeatherCatV1.21B27,2013-08-02 01:07:00,
2013-08-02 02:12:00,61.5,56.9,29.31,SE,140,11.0,13.0,85,0.00,,,0.00,WeatherCatV1.21B27,2013-08-02 01:12:00,
2013-08-02 02:17:00,61.3,56.8,29.31,SSE,148,10.0,17.0,85,0.00,,,0.00,WeatherCatV1.21B27,2013-08-02 01:17:00,
2013-08-02 02:22:00,61.5,56.9,29.31,SE,144,13.0,14.0,85,0.00,,,0.00,WeatherCatV1.21B27,2013-08-02 01:22:00,
2013-08-02 02:26:00,61.6,57.0,29.31,SSW,193,11.0,16.0,85,0.00,,,0.00,WeatherCatV1.21B27,2013-08-02 01:26:00,
2013-08-02 02:31:00,61.6,56.7,29.31,SSE,159,8.0,17.0,84,0.00,,,0.00,WeatherCatV1.21B27,2013-08-02 01:31:00,
2013-08-02 02:36:00,61.6,56.7,29.30,SSW,207,11.0,19.0,84,0.00,,,0.00,WeatherCatV1.21B27,2013-08-02 01:36:00,
2013-08-02 02:42:00,61.6,57.0,29.30,SSW,197,13.0,17.0,85,0.00,,,0.00,WeatherCatV1.21B27,2013-08-02 01:42:00,
2013-08-02 02:47:00,61.5,56.9,29.30,SE,143,10.0,16.0,85,0.00,,,0.00,WeatherCatV1.21B27,2013-08-02 01:47:00,
2013-08-02 02:52:00,61.3,56.8,29.30,SE,142,9.0,18.0,85,0.00,,,0.00,WeatherCatV1.21B27,2013-08-02 01:52:00,
2013-08-02 02:57:00,61.3,56.8,29.30,SSW,196,12.0,20.0,85,0.00,,,0.00,WeatherCatV1.21B27,2013-08-02 01:57:00,
2013-08-02 03:02:00,61.4,56.8,29.30,South,169,14.0,19.0,85,0.00,,,0.00,WeatherCatV1.21B27,2013-08-02 02:02:00,
2013-08-02 03:07:00,61.4,56.8,29.29,SSE,149,15.0,23.0,85,0.00,,,0.00,WeatherCatV1.21B27,2013-08-02 02:07:00,
2013-08-02 03:12:00,61.4,56.8,29.29,SSE,157,12.0,20.0,85,0.00,,,0.00,WeatherCatV1.21B27,2013-08-02 02:12:00,
2013-08-02 03:17:00,61.4,56.8,29.29,SSW,193,18.0,21.0,85,0.00,,,0.00,WeatherCatV1.21B27,2013-08-02 02:17:00,
2013-08-02 03:22:00,61.3,57.1,29.28,SSW,205,20.0,26.0,86,0.00,,,0.00,WeatherCatV1.21B27,2013-08-02 02:22:00,
2013-08-02 03:27:00,61.3,57.1,29.28,SSE,165,20.0,23.0,86,0.00,,,0.00,WeatherCatV1.21B27,2013-08-02 02:27:00,
2013-08-02 03:32:00,61.3,57.1,29.28,South,187,11.0,15.0,86,0.00,,,0.00,WeatherCatV1.21B27,2013-08-02 02:32:00,
2013-08-02 03:37:00,61.2,57.0,29.28,SSE,153,16.0,24.0,86,0.00,,,0.00,WeatherCatV1.21B27,2013-08-02 02:37:00,
2013-08-02 03:42:00,61.1,57.2,29.28,South,184,13.0,17.0,87,0.00,,,0.00,WeatherCatV1.21B27,2013-08-02 02:42:00,
2013-08-02 03:47:00,61.1,56.9,29.28,SSE,166,11.0,16.0,86,0.00,,,0.00,WeatherCatV1.21B27,2013-08-02 02:47:00,
2013-08-02 03:52:00,61.0,57.1,29.28,SSE,147,14.0,18.0,87,0.00,,,0.00,WeatherCatV1.21B27,2013-08-02 02:52:00,
2013-08-02 03:57:00,61.0,57.1,29.28,SSW,195,14.0,19.0,87,0.00,,,0.00,WeatherCatV1.21B27,2013-08-02 02:57:00,
2013-08-02 04:02:00,60.8,56.9,29.28,SSE,156,12.0,20.0,87,0.00,,,0.00,WeatherCatV1.21B27,2013-08-02 03:02:00,
2013-08-02 04:07:00,60.7,56.8,29.28,South,174,12.0,19.0,87,0.00,,,0.00,WeatherCatV1.21B27,2013-08-02 03:07:00,
2013-08-02 04:12:00,60.7,56.8,29.27,South,176,10.0,17.0,87,0.00,,,0.00,WeatherCatV1.21B27,2013-08-02 03:12:00,
2013-08-02 04:17:00,60.6,56.7,29.27,SSE,166,12.0,21.0,87,0.00,,,0.00,WeatherCatV1.21B27,2013-08-02 03:17:00,
2013-08-02 04:22:00,60.6,56.7,29.28,SSE,162,11.0,18.0,87,0.00,,,0.00,WeatherCatV1.21B27,2013-08-02 03:22:00,
2013-08-02 04:27:00,60.5,56.6,29.28,SSE,166,13.0,20.0,87,0.00,,,0.00,WeatherCatV1.21B27,2013-08-02 03:27:00,
2013-08-02 04:32:00,60.5,56.9,29.28,SE,130,13.0,18.0,88,0.00,,,0.00,WeatherCatV1.21B27,2013-08-02 03:32:00,
2013-08-02 04:37:00,60.5,56.9,29.27,South,187,18.0,20.0,88,0.00,,,0.00,WeatherCatV1.21B27,2013-08-02 03:37:00,
2013-08-02 04:41:00,60.6,57.0,29.28,SE,141,13.0,20.0,88,0.00,,,0.00,WeatherCatV1.21B27,2013-08-02 03:41:00,
2013-08-02 04:47:00,60.6,57.0,29.28,SSE,158,19.0,19.0,88,0.00,,,0.00,WeatherCatV1.21B27,2013-08-02 03:47:00,
2013-08-02 04:52:00,60.6,57.3,29.28,SSW,198,14.0,17.0,89,0.00,,,0.00,WeatherCatV1.21B27,2013-08-02 03:52:00,
2013-08-02 04:57:00,60.5,57.2,29.28,South,186,14.0,20.0,89,0.00,,,0.00,WeatherCatV1.21B27,2013-08-02 03:57:00,
2013-08-02 05:01:00,60.3,57.3,29.28,SSE,167,17.0,21.0,90,0.00,,,0.00,WeatherCatV1.21B27,2013-08-02 04:01:00,
2013-08-02 05:06:00,60.3,57.3,29.28,SSE,166,19.0,24.0,90,0.00,,,0.00,WeatherCatV1.21B27,2013-08-02 04:06:00,
2013-08-02 05:11:00,60.2,57.6,29.29,SSE,153,11.0,16.0,91,0.45,,,0.02,WeatherCatV1.21B27,2013-08-02 04:11:00,
2013-08-02 05:16:00,60.1,58.1,29.28,SW,219,15.0,20.0,93,0.08,,,0.02,WeatherCatV1.21B27,2013-08-02 04:16:00,
2013-08-02 05:21:00,60.7,58.7,29.28,SW,226,21.0,23.0,93,0.04,,,0.02,WeatherCatV1.21B27,2013-08-02 04:21:00,
2013-08-02 05:26:00,60.9,58.6,29.28,SW,225,19.0,20.0,92,0.03,,,0.02,WeatherCatV1.21B27,2013-08-02 04:26:00,
2013-08-02 05:31:00,60.9,58.2,29.29,SSW,212,19.0,23.0,91,0.00,,,0.02,WeatherCatV1.21B27,2013-08-02 04:31:00,
2013-08-02 05:36:00,60.8,58.2,29.29,SW,236,16.0,21.0,91,0.00,,,0.02,WeatherCatV1.21B27,2013-08-02 04:36:00,
2013-08-02 05:41:00,60.8,57.8,29.29,SW,232,15.0,23.0,90,0.00,,,0.02,WeatherCatV1.21B27,2013-08-02 04:41:00,
2013-08-02 05:46:00,60.7,58.0,29.29,WSW,245,22.0,27.0,91,0.00,,,0.02,WeatherCatV1.21B27,2013-08-02 04:46:00,
2013-08-02 05:51:00,60.7,57.4,29.30,SW,222,19.0,22.0,89,0.00,,,0.02,WeatherCatV1.21B27,2013-08-02 04:51:00,
2013-08-02 05:56:00,60.6,57.7,29.30,SW,221,19.0,20.0,90,0.00,,,0.02,WeatherCatV1.21B27,2013-08-02 04:56:00,
2013-08-02 06:01:00,60.5,57.2,29.31,WSW,240,21.0,22.0,89,0.00,,,0.02,WeatherCatV1.21B27,2013-08-02 05:01:00,
2013-08-02 06:06:00,60.5,57.2,29.32,SW,235,10.0,20.0,89,0.00,,,0.02,WeatherCatV1.21B27,2013-08-02 05:06:00,
2013-08-02 06:11:00,60.3,56.7,29.31,SSW,210,13.0,18.0,88,0.00,,,0.02,WeatherCatV1.21B27,2013-08-02 05:11:00,
2013-08-02 06:16:00,60.2,56.6,29.32,SW,228,20.0,22.0,88,0.00,,,0.02,WeatherCatV1.21B27,2013-08-02 05:16:00,
2013-08-02 06:21:00,60.4,56.8,29.32,WSW,248,13.0,24.0,88,0.00,,,0.02,WeatherCatV1.21B27,2013-08-02 05:21:00,
2013-08-02 06:26:00,60.5,56.9,29.32,South,177,13.0,21.0,88,0.00,,,0.02,WeatherCatV1.21B27,2013-08-02 05:26:00,
2013-08-02 06:31:00,60.7,57.4,29.32,South,185,18.0,23.0,89,0.00,,,0.02,WeatherCatV1.21B27,2013-08-02 05:31:00,
2013-08-02 06:36:00,60.8,57.5,29.32,SSW,203,11.0,18.0,89,0.00,,,0.02,WeatherCatV1.21B27,2013-08-02 05:36:00,
2013-08-02 06:41:00,60.9,57.6,29.32,SSW,194,13.0,23.0,89,0.00,,,0.02,WeatherCatV1.21B27,2013-08-02 05:41:00,
2013-08-02 06:46:00,60.9,57.6,29.32,SSW,205,14.0,23.0,89,0.00,,,0.02,WeatherCatV1.21B27,2013-08-02 05:46:00,
2013-08-02 06:51:00,60.8,57.2,29.32,SW,221,19.0,22.0,88,0.00,,,0.02,WeatherCatV1.21B27,2013-08-02 05:51:00,
2013-08-02 06:56:00,60.8,57.5,29.32,SW,222,13.0,16.0,89,0.00,,,0.02,WeatherCatV1.21B27,2013-08-02 05:56:00,
2013-08-02 07:01:00,60.8,57.2,29.33,SW,226,13.0,21.0,88,0.00,,,0.02,WeatherCatV1.21B27,2013-08-02 06:01:00,
2013-08-02 07:06:00,61.0,57.4,29.33,South,172,12.0,20.0,88,0.00,,,0.02,WeatherCatV1.21B27,2013-08-02 06:06:00,
2013-08-02 07:11:00,61.1,57.8,29.33,SSW,210,18.0,23.0,89,0.00,,,0.02,WeatherCatV1.21B27,2013-08-02 06:11:00,
2013-08-02 07:16:00,60.7,57.4,29.33,SSW,199,6.0,15.0,89,0.39,,,0.04,WeatherCatV1.21B27,2013-08-02 06:16:00,
2013-08-02 07:21:00,60.5,57.5,29.33,SSW,203,11.0,20.0,90,0.08,,,0.04,WeatherCatV1.21B27,2013-08-02 06:21:00,
2013-08-02 07:26:00,60.6,58.3,29.33,SSW,197,8.0,18.0,92,0.04,,,0.04,WeatherCatV1.21B27,2013-08-02 06:26:00,
2013-08-02 07:31:00,60.7,58.0,29.34,WSW,243,14.0,18.0,91,0.03,,,0.04,WeatherCatV1.21B27,2013-08-02 06:31:00,
2013-08-02 07:36:00,60.4,57.8,29.34,SW,218,16.0,20.0,91,0.11,,,0.06,WeatherCatV1.21B27,2013-08-02 06:36:00,
2013-08-02 07:41:00,60.6,57.7,29.34,SW,229,14.0,19.0,90,0.06,,,0.06,WeatherCatV1.21B27,2013-08-02 06:41:00,
2013-08-02 07:46:00,60.9,57.9,29.34,South,185,13.0,24.0,90,0.03,,,0.06,WeatherCatV1.21B27,2013-08-02 06:46:00,
2013-08-02 07:51:00,61.0,57.7,29.34,SW,222,25.0,25.0,89,0.00,,,0.06,WeatherCatV1.21B27,2013-08-02 06:51:00,
2013-08-02 07:56:00,61.0,57.4,29.34,SW,215,14.0,21.0,88,0.00,,,0.06,WeatherCatV1.21B27,2013-08-02 06:56:00,
2013-08-02 08:01:00,61.0,57.7,29.34,SW,224,14.0,16.0,89,0.00,,,0.06,WeatherCatV1.21B27,2013-08-02 07:01:00,
2013-08-02 08:06:00,61.3,58.0,29.34,South,183,13.0,25.0,89,0.00,,,0.06,WeatherCatV1.21B27,2013-08-02 07:06:00,
2013-08-02 08:11:00,61.3,58.0,29.35,SW,215,16.0,24.0,89,0.00,,,0.06,WeatherCatV1.21B27,2013-08-02 07:11:00,
2013-08-02 08:16:00,61.4,57.8,29.35,SW,224,19.0,20.0,88,0.00,,,0.06,WeatherCatV1.21B27,2013-08-02 07:16:00,
2013-08-02 08:21:00,61.6,58.0,29.35,SW,236,18.0,22.0,88,0.00,,,0.06,WeatherCatV1.21B27,2013-08-02 07:21:00,
2013-08-02 08:26:00,61.7,58.1,29.35,SE,137,15.0,21.0,88,0.00,,,0.06,WeatherCatV1.21B27,2013-08-02 07:26:00,
2013-08-02 08:31:00,61.6,58.3,29.36,SW,226,14.0,21.0,89,0.00,,,0.06,WeatherCatV1.21B27,2013-08-02 07:31:00,
2013-08-02 08:36:00,61.6,57.4,29.36,SW,224,17.0,22.0,86,0.00,,,0.06,WeatherCatV1.21B27,2013-08-02 07:36:00,
2013-08-02 08:41:00,62.0,58.1,29.36,SW,219,14.0,20.0,87,0.00,,,0.06,WeatherCatV1.21B27,2013-08-02 07:41:00,
2013-08-02 08:46:00,62.4,58.8,29.36,WSW,242,14.0,20.0,88,0.00,,,0.06,WeatherCatV1.21B27,2013-08-02 07:46:00,
2013-08-02 08:51:00,62.3,58.4,29.36,South,187,7.0,17.0,87,0.00,,,0.06,WeatherCatV1.21B27,2013-08-02 07:51:00,
2013-08-02 08:56:00,62.2,58.6,29.36,SSW,205,11.0,18.0,88,0.00,,,0.06,WeatherCatV1.21B27,2013-08-02 07:56:00,
2013-08-02 09:01:00,62.2,58.3,29.36,SW,214,20.0,20.0,87,0.00,,,0.06,WeatherCatV1.21B27,2013-08-02 08:01:00,
2013-08-02 09:06:00,62.2,58.0,29.36,SSW,212,27.0,27.0,86,0.00,,,0.06,WeatherCatV1.21B27,2013-08-02 08:06:00,
2013-08-02 09:11:00,62.6,58.3,29.37,SSW,193,11.0,19.0,86,0.00,,,0.06,WeatherCatV1.21B27,2013-08-02 08:11:00,
2013-08-02 09:16:00,62.9,58.6,29.36,South,191,17.0,25.0,86,0.00,,,0.06,WeatherCatV1.21B27,2013-08-02 08:16:00,
2013-08-02 09:21:00,63.0,58.4,29.36,SW,228,10.0,19.0,85,0.00,,,0.06,WeatherCatV1.21B27,2013-08-02 08:21:00,
2013-08-02 09:26:00,62.9,58.3,29.37,South,191,9.0,20.0,85,0.00,,,0.06,WeatherCatV1.21B27,2013-08-02 08:26:00,
2013-08-02 09:31:00,62.9,58.6,29.37,SSW,207,17.0,20.0,86,0.00,,,0.06,WeatherCatV1.21B27,2013-08-02 08:31:00,
2013-08-02 09:36:00,63.1,58.5,29.37,SSW,210,20.0,20.0,85,0.00,,,0.06,WeatherCatV1.21B27,2013-08-02 08:36:00,
2013-08-02 09:41:00,63.0,58.4,29.37,South,189,11.0,17.0,85,0.00,,,0.06,WeatherCatV1.21B27,2013-08-02 08:41:00,
2013-08-02 09:46:00,63.3,58.7,29.38,SW,214,15.0,22.0,85,0.00,,,0.06,WeatherCatV1.21B27,2013-08-02 08:46:00,
2013-08-02 09:51:00,63.7,59.1,29.38,SSW,201,17.0,18.0,85,0.00,,,0.06,WeatherCatV1.21B27,2013-08-02 08:51:00,
2013-08-02 09:56:00,63.9,59.3,29.38,South,190,20.0,21.0,85,0.00,,,0.06,WeatherCatV1.21B27,2013-08-02 08:56:00,
2013-08-02 10:01:00,63.3,58.0,29.38,SSW,208,16.0,27.0,83,0.00,,,0.06,WeatherCatV1.21B27,2013-08-02 09:01:00,
2013-08-02 10:06:00,61.1,56.9,29.38,SW,217,13.0,16.0,86,0.00,,,0.06,WeatherCatV1.21B27,2013-08-02 09:06:00,
2013-08-02 10:11:00,60.9,57.9,29.38,SSW,208,11.0,22.0,90,0.00,,,0.06,WeatherCatV1.21B27,2013-08-02 09:11:00,
2013-08-02 10:16:00,61.7,58.1,29.38,SW,224,15.0,23.0,88,0.00,,,0.06,WeatherCatV1.21B27,2013-08-02 09:16:00,
2013-08-02 10:21:00,62.6,58.7,29.39,SW,219,14.0,23.0,87,0.00,,,0.06,WeatherCatV1.21B27,2013-08-02 09:21:00,
2013-08-02 10:26:00,62.4,57.2,29.39,SSW,201,14.0,23.0,83,0.00,,,0.06,WeatherCatV1.21B27,2013-08-02 09:26:00,
2013-08-02 10:31:00,62.1,56.9,29.39,SW,228,12.0,22.0,83,0.00,,,0.06,WeatherCatV1.21B27,2013-08-02 09:31:00,
2013-08-02 10:36:00,62.0,56.8,29.39,SSW,197,15.0,18.0,83,0.00,,,0.06,WeatherCatV1.21B27,2013-08-02 09:36:00,
2013-08-02 10:41:00,61.9,57.3,29.39,SSW,192,13.0,20.0,85,0.00,,,0.06,WeatherCatV1.21B27,2013-08-02 09:41:00,
2013-08-02 10:46:00,62.1,57.5,29.39,SW,217,18.0,21.0,85,0.00,,,0.06,WeatherCatV1.21B27,2013-08-02 09:46:00,
2013-08-02 10:51:00,61.9,57.0,29.39,SW,217,17.0,24.0,84,0.00,,,0.06,WeatherCatV1.21B27,2013-08-02 09:51:00,
2013-08-02 10:56:00,61.8,57.6,29.39,SW,232,16.0,19.0,86,0.00,,,0.06,WeatherCatV1.21B27,2013-08-02 09:56:00,
2013-08-02 11:01:00,62.6,58.3,29.39,SW,217,10.0,24.0,86,0.00,,,0.06,WeatherCatV1.21B27,2013-08-02 10:01:00,
2013-08-02 11:06:00,63.2,58.6,29.40,SW,228,13.0,17.0,85,0.00,,,0.06,WeatherCatV1.21B27,2013-08-02 10:06:00,
2013-08-02 11:11:00,63.6,58.3,29.40,SW,224,16.0,27.0,83,0.00,,,0.06,WeatherCatV1.21B27,2013-08-02 10:11:00,
2013-08-02 11:16:00,63.6,58.0,29.40,South,176,22.0,22.0,82,0.00,,,0.06,WeatherCatV1.21B27,2013-08-02 10:16:00,
2013-08-02 11:21:00,63.7,59.1,29.40,SSW,208,16.0,21.0,85,0.00,,,0.06,WeatherCatV1.21B27,2013-08-02 10:21:00,
2013-08-02 11:26:00,64.4,59.5,29.40,SSW,201,10.0,23.0,84,0.00,,,0.06,WeatherCatV1.21B27,2013-08-02 10:26:00,
2013-08-02 11:31:00,64.6,59.0,29.40,SW,218,18.0,22.0,82,0.00,,,0.06,WeatherCatV1.21B27,2013-08-02 10:31:00,
2013-08-02 11:36:00,64.0,58.0,29.40,SW,222,12.0,26.0,81,0.00,,,0.06,WeatherCatV1.21B27,2013-08-02 10:36:00,
2013-08-02 11:41:00,64.4,59.5,29.40,SSW,208,12.0,19.0,84,0.00,,,0.06,WeatherCatV1.21B27,2013-08-02 10:41:00,
2013-08-02 11:46:00,64.2,58.2,29.40,SW,218,17.0,25.0,81,0.00,,,0.06,WeatherCatV1.21B27,2013-08-02 10:46:00,
2013-08-02 11:51:00,63.9,58.0,29.40,SSW,212,10.0,19.0,81,0.00,,,0.06,WeatherCatV1.21B27,2013-08-02 10:51:00,
2013-08-02 11:56:00,63.9,58.3,29.40,SW,229,21.0,26.0,82,0.00,,,0.06,WeatherCatV1.21B27,2013-08-02 10:56:00,
2013-08-02 12:01:00,64.1,58.5,29.40,SW,235,14.0,27.0,82,0.00,,,0.06,WeatherCatV1.21B27,2013-08-02 11:01:00,
2013-08-02 12:06:00,64.8,59.2,29.41,SW,222,15.0,19.0,82,0.00,,,0.06,WeatherCatV1.21B27,2013-08-02 11:06:00,
2013-08-02 12:11:00,64.3,57.6,29.40,SW,222,15.0,24.0,79,0.00,,,0.06,WeatherCatV1.21B27,2013-08-02 11:11:00,
2013-08-02 12:16:00,64.2,57.9,29.40,WSW,250,21.0,25.0,80,0.00,,,0.06,WeatherCatV1.21B27,2013-08-02 11:16:00,
2013-08-02 12:21:00,64.6,58.3,29.41,SSW,205,16.0,24.0,80,0.00,,,0.06,WeatherCatV1.21B27,2013-08-02 11:21:00,
2013-08-02 12:26:00,64.3,58.7,29.41,SW,236,10.0,21.0,82,0.00,,,0.06,WeatherCatV1.21B27,2013-08-02 11:26:00,
2013-08-02 12:31:00,64.1,57.8,29.41,SW,217,16.0,26.0,80,0.00,,,0.06,WeatherCatV1.21B27,2013-08-02 11:31:00,
2013-08-02 12:36:00,64.5,57.8,29.41,SSW,210,13.0,25.0,79,0.00,,,0.06,WeatherCatV1.21B27,2013-08-02 11:36:00,
2013-08-02 12:41:00,64.3,58.3,29.41,SSW,200,19.0,27.0,81,0.00,,,0.06,WeatherCatV1.21B27,2013-08-02 11:41:00,
2013-08-02 12:46:00,64.6,58.6,29.41,SW,224,21.0,23.0,81,0.00,,,0.06,WeatherCatV1.21B27,2013-08-02 11:46:00,
2013-08-02 12:51:00,64.6,58.3,29.41,SW,225,26.0,27.0,80,0.00,,,0.06,WeatherCatV1.21B27,2013-08-02 11:51:00,
2013-08-02 12:56:00,64.7,58.0,29.41,WSW,240,15.0,27.0,79,0.00,,,0.06,WeatherCatV1.21B27,2013-08-02 11:56:00,
2013-08-02 13:01:00,64.8,58.1,29.41,South,184,15.0,25.0,79,0.00,,,0.06,WeatherCatV1.21B27,2013-08-02 12:01:00,
2013-08-02 13:06:00,64.8,58.1,29.41,South,183,16.0,20.0,79,0.00,,,0.06,WeatherCatV1.21B27,2013-08-02 12:06:00,
2013-08-02 13:11:00,64.9,58.2,29.41,SSE,166,10.0,23.0,79,0.00,,,0.06,WeatherCatV1.21B27,2013-08-02 12:11:00,
2013-08-02 13:16:00,64.3,58.0,29.41,SSW,193,14.0,22.0,80,0.00,,,0.06,WeatherCatV1.21B27,2013-08-02 12:16:00,
2013-08-02 13:21:00,64.1,58.5,29.41,SSW,198,22.0,27.0,82,0.00,,,0.06,WeatherCatV1.21B27,2013-08-02 12:21:00,
2013-08-02 13:26:00,64.6,57.9,29.41,SSW,203,12.0,26.0,79,0.00,,,0.06,WeatherCatV1.21B27,2013-08-02 12:26:00,
2013-08-02 13:31:00,64.5,57.8,29.41,SSE,156,12.0,24.0,79,0.00,,,0.06,WeatherCatV1.21B27,2013-08-02 12:31:00,
2013-08-02 13:36:00,64.6,58.3,29.42,SW,214,19.0,23.0,80,0.00,,,0.06,WeatherCatV1.21B27,2013-08-02 12:36:00,
2013-08-02 13:41:00,64.6,57.9,29.41,SW,224,14.0,19.0,79,0.00,,,0.06,WeatherCatV1.21B27,2013-08-02 12:41:00,
2013-08-02 13:46:00,64.3,57.6,29.42,SSW,208,14.0,24.0,79,0.00,,,0.06,WeatherCatV1.21B27,2013-08-02 12:46:00,
2013-08-02 13:51:00,64.5,58.5,29.42,West,259,10.0,23.0,81,0.00,,,0.06,WeatherCatV1.21B27,2013-08-02 12:51:00,
2013-08-02 13:56:00,64.5,57.8,29.42,SSW,203,18.0,28.0,79,0.00,,,0.06,WeatherCatV1.21B27,2013-08-02 12:56:00,
2013-08-02 14:01:00,64.7,58.0,29.42,WSW,239,19.0,25.0,79,0.00,,,0.06,WeatherCatV1.21B27,2013-08-02 13:01:00,
2013-08-02 14:06:00,64.9,58.2,29.42,SW,234,18.0,30.0,79,0.00,,,0.06,WeatherCatV1.21B27,2013-08-02 13:06:00,
2013-08-02 14:11:00,64.9,57.9,29.42,WSW,243,19.0,28.0,78,0.00,,,0.06,WeatherCatV1.21B27,2013-08-02 13:11:00,
2013-08-02 14:16:00,65.2,58.2,29.42,SSW,200,17.0,26.0,78,0.00,,,0.06,WeatherCatV1.21B27,2013-08-02 13:16:00,
2013-08-02 14:21:00,65.4,58.3,29.43,SW,233,19.0,26.0,78,0.00,,,0.06,WeatherCatV1.21B27,2013-08-02 13:21:00,
2013-08-02 14:26:00,65.2,57.8,29.43,SSW,200,16.0,28.0,77,0.00,,,0.06,WeatherCatV1.21B27,2013-08-02 13:26:00,
2013-08-02 14:31:00,65.1,56.6,29.43,SSW,211,13.0,25.0,74,0.00,,,0.06,WeatherCatV1.21B27,2013-08-02 13:31:00,
2013-08-02 14:36:00,64.4,56.7,29.43,SW,235,15.0,15.0,76,0.00,,,0.06,WeatherCatV1.21B27,2013-08-02 13:36:00,
2013-08-02 14:41:00,64.0,56.3,29.43,West,272,8.0,22.0,76,0.00,,,0.06,WeatherCatV1.21B27,2013-08-02 13:41:00,
2013-08-02 14:46:00,64.2,57.9,29.43,SSW,197,14.0,27.0,80,0.00,,,0.06,WeatherCatV1.21B27,2013-08-02 13:46:00,
2013-08-02 14:51:00,64.9,58.6,29.43,WSW,246,12.0,25.0,80,0.00,,,0.06,WeatherCatV1.21B27,2013-08-02 13:51:00,
2013-08-02 14:53:00,65.2,58.5,29.42,SW,222,16.0,23.0,79,0.00,,,0.06,WeatherCatV1.21B27,2013-08-02 13:53:00,
2013-08-02 14:58:00,65.1,57.3,29.43,SSW,208,20.0,26.0,76,0.00,,,0.06,WeatherCatV1.21B27,2013-08-02 13:58:00,
2013-08-02 15:03:00,64.5,56.8,29.43,SW,236,24.0,25.0,76,0.00,,,0.06,WeatherCatV1.21B27,2013-08-02 14:03:00,
2013-08-02 15:08:00,64.8,58.1,29.43,SSW,203,18.0,25.0,79,0.00,,,0.06,WeatherCatV1.21B27,2013-08-02 14:08:00,
2013-08-02 15:13:00,64.8,57.8,29.43,SW,236,23.0,27.0,78,0.00,,,0.06,WeatherCatV1.21B27,2013-08-02 14:13:00,
2013-08-02 15:18:00,65.0,59.0,29.43,South,170,10.0,16.0,81,0.00,,,0.06,WeatherCatV1.21B27,2013-08-02 14:18:00,
2013-08-02 15:23:00,65.3,58.3,29.43,SW,229,16.0,26.0,78,0.00,,,0.06,WeatherCatV1.21B27,2013-08-02 14:23:00,
2013-08-02 15:28:00,65.0,57.6,29.43,West,260,16.0,27.0,77,0.00,,,0.06,WeatherCatV1.21B27,2013-08-02 14:28:00,
2013-08-02 15:33:00,64.9,58.2,29.43,SSW,212,25.0,25.0,79,0.00,,,0.06,WeatherCatV1.21B27,2013-08-02 14:33:00,
2013-08-02 15:38:00,64.3,57.6,29.43,SW,225,16.0,24.0,79,0.00,,,0.06,WeatherCatV1.21B27,2013-08-02 14:38:00,
2013-08-02 15:43:00,64.3,57.6,29.43,SSE,147,14.0,26.0,79,0.00,,,0.06,WeatherCatV1.21B27,2013-08-02 14:43:00,
2013-08-02 15:48:00,64.8,58.1,29.43,SW,236,15.0,24.0,79,0.00,,,0.06,WeatherCatV1.21B27,2013-08-02 14:48:00,
2013-08-02 15:53:00,64.7,57.7,29.44,SSW,207,8.0,19.0,78,0.00,,,0.06,WeatherCatV1.21B27,2013-08-02 14:53:00,
2013-08-02 15:58:00,64.6,57.9,29.44,WSW,238,16.0,26.0,79,0.00,,,0.06,WeatherCatV1.21B27,2013-08-02 14:58:00,
2013-08-02 16:03:00,64.7,58.0,29.44,West,264,12.0,21.0,79,0.00,,,0.06,WeatherCatV1.21B27,2013-08-02 15:03:00,
2013-08-02 16:08:00,64.7,57.7,29.44,South,191,15.0,23.0,78,0.00,,,0.06,WeatherCatV1.21B27,2013-08-02 15:08:00,
2013-08-02 16:13:00,64.6,57.6,29.44,SSW,207,20.0,29.0,78,0.00,,,0.06,WeatherCatV1.21B27,2013-08-02 15:13:00,
2013-08-02 16:18:00,64.6,57.9,29.43,SW,229,19.0,26.0,79,0.00,,,0.06,WeatherCatV1.21B27,2013-08-02 15:18:00,
2013-08-02 16:23:00,64.5,57.8,29.44,SSW,192,9.0,18.0,79,0.00,,,0.06,WeatherCatV1.21B27,2013-08-02 15:23:00,
2013-08-02 16:28:00,64.4,57.4,29.44,SW,222,13.0,24.0,78,0.00,,,0.06,WeatherCatV1.21B27,2013-08-02 15:28:00,
2013-08-02 16:33:00,63.9,57.6,29.44,SSW,202,7.0,24.0,80,0.00,,,0.06,WeatherCatV1.21B27,2013-08-02 15:33:00,
2013-08-02 16:38:00,63.9,56.9,29.45,West,260,16.0,27.0,78,0.00,,,0.06,WeatherCatV1.21B27,2013-08-02 15:38:00,
2013-08-02 16:43:00,63.2,57.3,29.44,SSW,213,25.0,27.0,81,0.00,,,0.06,WeatherCatV1.21B27,2013-08-02 15:43:00,
2013-08-02 16:48:00,62.9,57.3,29.44,SW,217,20.0,27.0,82,0.00,,,0.06,WeatherCatV1.21B27,2013-08-02 15:48:00,
2013-08-02 16:53:00,63.0,57.4,29.45,SW,236,17.0,18.0,82,0.00,,,0.06,WeatherCatV1.21B27,2013-08-02 15:53:00,
2013-08-02 16:58:00,62.9,57.0,29.45,SW,219,16.0,19.0,81,0.00,,,0.06,WeatherCatV1.21B27,2013-08-02 15:58:00,
2013-08-02 17:03:00,62.9,57.0,29.45,SW,220,18.0,18.0,81,0.00,,,0.06,WeatherCatV1.21B27,2013-08-02 16:03:00,
2013-08-02 17:08:00,62.8,56.9,29.45,WSW,242,17.0,23.0,81,0.00,,,0.06,WeatherCatV1.21B27,2013-08-02 16:08:00,
2013-08-02 17:13:00,63.0,56.7,29.45,SW,222,10.0,18.0,80,0.00,,,0.06,WeatherCatV1.21B27,2013-08-02 16:13:00,
2013-08-02 17:18:00,63.2,56.9,29.45,SW,231,14.0,20.0,80,0.00,,,0.06,WeatherCatV1.21B27,2013-08-02 16:18:00,
2013-08-02 17:23:00,63.4,57.1,29.45,SW,225,11.0,18.0,80,0.00,,,0.06,WeatherCatV1.21B27,2013-08-02 16:23:00,
2013-08-02 17:28:00,63.9,56.2,29.45,SW,222,12.0,21.0,76,0.00,,,0.06,WeatherCatV1.21B27,2013-08-02 16:28:00,
2013-08-02 17:33:00,63.8,56.1,29.45,SSW,207,14.0,25.0,76,0.00,,,0.06,WeatherCatV1.21B27,2013-08-02 16:33:00,
2013-08-02 17:38:00,63.5,56.5,29.45,SW,221,14.0,21.0,78,0.00,,,0.06,WeatherCatV1.21B27,2013-08-02 16:38:00,
2013-08-02 17:43:00,63.4,56.1,29.45,SW,224,18.0,24.0,77,0.00,,,0.06,WeatherCatV1.21B27,2013-08-02 16:43:00,
2013-08-02 17:48:00,63.2,55.9,29.46,SSW,212,19.0,19.0,77,0.00,,,0.06,WeatherCatV1.21B27,2013-08-02 16:48:00,
2013-08-02 17:53:00,62.9,55.2,29.46,SW,215,11.0,17.0,76,0.00,,,0.06,WeatherCatV1.21B27,2013-08-02 16:53:00,
2013-08-02 17:58:00,62.8,55.5,29.46,SW,226,24.0,25.0,77,0.00,,,0.06,WeatherCatV1.21B27,2013-08-02 16:58:00,
2013-08-02 18:03:00,62.8,55.1,29.46,WSW,250,17.0,25.0,76,0.00,,,0.06,WeatherCatV1.21B27,2013-08-02 17:03:00,
2013-08-02 18:08:00,62.9,55.6,29.46,SW,236,20.0,20.0,77,0.00,,,0.06,WeatherCatV1.21B27,2013-08-02 17:08:00,
2013-08-02 18:13:00,63.0,55.7,29.46,West,276,17.0,19.0,77,0.00,,,0.06,WeatherCatV1.21B27,2013-08-02 17:13:00,
2013-08-02 18:18:00,62.8,55.5,29.46,WSW,245,18.0,23.0,77,0.00,,,0.06,WeatherCatV1.21B27,2013-08-02 17:18:00,
2013-08-02 18:23:00,62.7,55.0,29.47,SW,232,20.0,24.0,76,0.00,,,0.06,WeatherCatV1.21B27,2013-08-02 17:23:00,
2013-08-02 18:28:00,62.6,55.3,29.47,WSW,248,8.0,18.0,77,0.00,,,0.06,WeatherCatV1.21B27,2013-08-02 17:28:00,
2013-08-02 18:33:00,62.7,55.0,29.47,SW,222,17.0,19.0,76,0.00,,,0.06,WeatherCatV1.21B27,2013-08-02 17:33:00,
2013-08-02 18:38:00,62.9,55.2,29.47,SSW,205,11.0,18.0,76,0.00,,,0.06,WeatherCatV1.21B27,2013-08-02 17:38:00,
2013-08-02 18:43:00,62.6,54.6,29.47,SW,221,13.0,21.0,75,0.00,,,0.06,WeatherCatV1.21B27,2013-08-02 17:43:00,
2013-08-02 18:48:00,62.2,54.5,29.47,SW,225,9.0,16.0,76,0.00,,,0.06,WeatherCatV1.21B27,2013-08-02 17:48:00,
2013-08-02 18:53:00,61.8,54.9,29.47,WSW,245,7.0,17.0,78,0.00,,,0.06,WeatherCatV1.21B27,2013-08-02 17:53:00,
2013-08-02 18:58:00,61.6,55.7,29.47,WSW,253,15.0,21.0,81,0.00,,,0.06,WeatherCatV1.21B27,2013-08-02 17:58:00,
2013-08-02 19:03:00,61.4,55.8,29.48,WSW,253,14.0,19.0,82,0.00,,,0.06,WeatherCatV1.21B27,2013-08-02 18:03:00,
2013-08-02 19:08:00,61.2,55.3,29.47,SW,234,13.0,21.0,81,0.00,,,0.06,WeatherCatV1.21B27,2013-08-02 18:08:00,
2013-08-02 19:13:00,61.1,55.2,29.47,SW,222,12.0,20.0,81,0.00,,,0.06,WeatherCatV1.21B27,2013-08-02 18:13:00,
2013-08-02 19:18:00,61.1,55.2,29.47,SW,217,13.0,21.0,81,0.00,,,0.06,WeatherCatV1.21B27,2013-08-02 18:18:00,
2013-08-02 19:23:00,61.1,55.2,29.48,SW,236,17.0,17.0,81,0.00,,,0.06,WeatherCatV1.21B27,2013-08-02 18:23:00,
2013-08-02 19:28:00,61.1,54.9,29.48,South,188,11.0,20.0,80,0.00,,,0.06,WeatherCatV1.21B27,2013-08-02 18:28:00,
2013-08-02 19:33:00,61.1,54.9,29.48,SW,229,19.0,20.0,80,0.00,,,0.06,WeatherCatV1.21B27,2013-08-02 18:33:00,
2013-08-02 19:38:00,61.2,55.0,29.48,West,280,14.0,14.0,80,0.00,,,0.06,WeatherCatV1.21B27,2013-08-02 18:38:00,
2013-08-02 19:44:00,61.0,55.5,29.48,SW,229,6.0,16.0,82,0.00,,,0.06,WeatherCatV1.21B27,2013-08-02 18:44:00,
2013-08-02 19:49:00,60.8,55.3,29.49,West,277,8.0,16.0,82,0.00,,,0.06,WeatherCatV1.21B27,2013-08-02 18:49:00,
2013-08-02 19:54:00,60.6,54.7,29.49,SSW,194,13.0,22.0,81,0.00,,,0.06,WeatherCatV1.21B27,2013-08-02 18:54:00,
2013-08-02 19:59:00,60.7,54.5,29.49,SW,236,14.0,21.0,80,0.00,,,0.06,WeatherCatV1.21B27,2013-08-02 18:59:00,
2013-08-02 20:04:00,60.7,54.8,29.49,West,268,10.0,17.0,81,0.00,,,0.06,WeatherCatV1.21B27,2013-08-02 19:04:00,
2013-08-02 20:09:00,60.8,54.9,29.49,SW,233,7.0,14.0,81,0.00,,,0.06,WeatherCatV1.21B27,2013-08-02 19:09:00,
2013-08-02 20:14:00,60.9,54.7,29.49,SW,224,14.0,18.0,80,0.00,,,0.06,WeatherCatV1.21B27,2013-08-02 19:14:00,
2013-08-02 20:19:00,60.8,54.6,29.50,SSW,209,11.0,20.0,80,0.00,,,0.06,WeatherCatV1.21B27,2013-08-02 19:19:00,
2013-08-02 20:24:00,60.8,54.6,29.50,SSW,207,9.0,18.0,80,0.00,,,0.06,WeatherCatV1.21B27,2013-08-02 19:24:00,
2013-08-02 20:29:00,60.8,54.9,29.50,SW,222,16.0,16.0,81,0.00,,,0.06,WeatherCatV1.21B27,2013-08-02 19:29:00,
2013-08-02 20:34:00,60.8,54.6,29.50,SW,226,10.0,18.0,80,0.00,,,0.06,WeatherCatV1.21B27,2013-08-02 19:34:00,
2013-08-02 20:39:00,60.7,54.1,29.51,WSW,252,13.0,20.0,79,0.00,,,0.06,WeatherCatV1.21B27,2013-08-02 19:39:00,
2013-08-02 20:44:00,60.7,54.5,29.50,West,267,11.0,19.0,80,0.00,,,0.06,WeatherCatV1.21B27,2013-08-02 19:44:00,
2013-08-02 20:49:00,60.6,54.7,29.51,WSW,250,11.0,15.0,81,0.00,,,0.06,WeatherCatV1.21B27,2013-08-02 19:49:00,
2013-08-02 20:54:00,60.6,54.4,29.51,SW,214,12.0,16.0,80,0.00,,,0.06,WeatherCatV1.21B27,2013-08-02 19:54:00,
2013-08-02 20:59:00,60.6,54.7,29.51,SW,225,14.0,17.0,81,0.00,,,0.06,WeatherCatV1.21B27,2013-08-02 19:59:00,
2013-08-02 21:04:00,60.6,54.7,29.51,WSW,243,9.0,15.0,81,0.00,,,0.06,WeatherCatV1.21B27,2013-08-02 20:04:00,
2013-08-02 21:09:00,60.6,55.1,29.51,West,262,22.0,22.0,82,0.00,,,0.06,WeatherCatV1.21B27,2013-08-02 20:09:00,
2013-08-02 21:14:00,60.3,54.4,29.52,SW,232,8.0,15.0,81,0.00,,,0.06,WeatherCatV1.21B27,2013-08-02 20:14:00,
2013-08-02 21:19:00,60.1,54.2,29.52,SW,229,10.0,13.0,81,0.00,,,0.06,WeatherCatV1.21B27,2013-08-02 20:19:00,
2013-08-02 21:24:00,60.1,54.6,29.52,SSW,202,8.0,13.0,82,0.00,,,0.06,WeatherCatV1.21B27,2013-08-02 20:24:00,
2013-08-02 21:29:00,59.7,54.8,29.52,WSW,247,5.0,9.0,84,0.20,,,0.07,WeatherCatV1.21B27,2013-08-02 20:29:00,
2013-08-02 21:34:00,58.7,55.2,29.52,WSW,255,8.0,15.0,88,0.47,,,0.10,WeatherCatV1.21B27,2013-08-02 20:34:00,
2013-08-02 21:39:00,57.8,54.9,29.52,WSW,239,14.0,15.0,90,0.09,,,0.11,WeatherCatV1.21B27,2013-08-02 20:39:00,
2013-08-02 21:44:00,57.4,55.1,29.52,SW,214,11.0,19.0,92,0.17,,,0.13,WeatherCatV1.21B27,2013-08-02 20:44:00,
2013-08-02 21:49:00,57.2,54.9,29.52,SW,215,8.0,14.0,92,0.06,,,0.13,WeatherCatV1.21B27,2013-08-02 20:49:00,
2013-08-02 21:54:00,57.4,55.1,29.53,SW,235,15.0,15.0,92,0.04,,,0.13,WeatherCatV1.21B27,2013-08-02 20:54:00,
2013-08-02 21:59:00,57.6,54.7,29.53,SW,220,12.0,18.0,90,0.00,,,0.13,WeatherCatV1.21B27,2013-08-02 20:59:00,
2013-08-02 22:04:00,57.5,54.6,29.53,WSW,257,12.0,14.0,90,0.00,,,0.13,WeatherCatV1.21B27,2013-08-02 21:04:00,
2013-08-02 22:09:00,57.4,54.5,29.53,West,264,11.0,13.0,90,0.00,,,0.13,WeatherCatV1.21B27,2013-08-02 21:09:00,
2013-08-02 22:14:00,57.4,54.2,29.53,WSW,252,6.0,12.0,89,0.00,,,0.13,WeatherCatV1.21B27,2013-08-02 21:14:00,
2013-08-02 22:19:00,57.4,54.2,29.53,SW,236,8.0,12.0,89,0.00,,,0.13,WeatherCatV1.21B27,2013-08-02 21:19:00,
2013-08-02 22:24:00,57.4,54.2,29.53,SSW,198,8.0,13.0,89,0.00,,,0.13,WeatherCatV1.21B27,2013-08-02 21:24:00,
2013-08-02 22:29:00,57.4,53.9,29.53,West,264,9.0,11.0,88,0.00,,,0.13,WeatherCatV1.21B27,2013-08-02 21:29:00,
2013-08-02 22:34:00,57.4,53.9,29.53,WSW,250,8.0,12.0,88,0.00,,,0.13,WeatherCatV1.21B27,2013-08-02 21:34:00,
2013-08-02 22:39:00,57.5,54.3,29.54,West,272,4.0,11.0,89,0.00,,,0.13,WeatherCatV1.21B27,2013-08-02 21:39:00,
2013-08-02 22:44:00,57.6,54.7,29.54,West,266,8.0,17.0,90,0.00,,,0.14,WeatherCatV1.21B27,2013-08-02 21:44:00,
2013-08-02 22:49:00,57.3,54.7,29.54,SW,233,6.0,12.0,91,0.10,,,0.15,WeatherCatV1.21B27,2013-08-02 21:49:00,
2013-08-02 22:54:00,57.1,54.5,29.54,SW,224,10.0,11.0,91,0.05,,,0.15,WeatherCatV1.21B27,2013-08-02 21:54:00,
2013-08-02 22:59:00,57.1,54.5,29.54,SW,228,5.0,13.0,91,0.03,,,0.15,WeatherCatV1.21B27,2013-08-02 21:59:00,
2013-08-02 23:04:00,57.0,54.4,29.54,SW,224,5.0,12.0,91,0.00,,,0.15,WeatherCatV1.21B27,2013-08-02 22:04:00,
2013-08-02 23:09:00,57.0,54.1,29.54,WSW,253,9.0,11.0,90,0.00,,,0.15,WeatherCatV1.21B27,2013-08-02 22:09:00,
2013-08-02 23:14:00,57.0,54.1,29.54,WSW,243,6.0,10.0,90,0.00,,,0.15,WeatherCatV1.21B27,2013-08-02 22:14:00,
2013-08-02 23:19:00,57.0,54.1,29.54,WSW,238,9.0,11.0,90,0.00,,,0.15,WeatherCatV1.21B27,2013-08-02 22:19:00,
2013-08-02 23:24:00,57.1,54.2,29.54,West,264,10.0,12.0,90,0.00,,,0.15,WeatherCatV1.21B27,2013-08-02 22:24:00,
2013-08-02 23:29:00,57.3,54.1,29.54,West,277,9.0,13.0,89,0.00,,,0.15,WeatherCatV1.21B27,2013-08-02 22:29:00,
2013-08-02 23:34:00,57.3,54.4,29.54,SW,228,9.0,10.0,90,0.00,,,0.15,WeatherCatV1.21B27,2013-08-02 22:34:00,
2013-08-02 23:39:00,57.4,54.5,29.55,WSW,248,9.0,10.0,90,0.00,,,0.15,WeatherCatV1.21B27,2013-08-02 22:39:00,
2013-08-02 23:44:00,57.4,54.8,29.55,SW,226,7.0,14.0,91,0.21,,,0.17,WeatherCatV1.21B27,2013-08-02 22:44:00,
2013-08-02 23:49:00,57.2,54.6,29.55,SW,224,12.0,13.0,91,0.06,,,0.17,WeatherCatV1.21B27,2013-08-02 22:49:00,
2013-08-02 23:54:00,56.8,54.2,29.55,SW,224,7.0,14.0,91,0.05,,,0.17,WeatherCatV1.21B27,2013-08-02 22:54:00,
2013-08-02 23:59:00,56.7,54.1,29.55,SW,233,12.0,15.0,91,0.30,,,0.19,WeatherCatV1.21B27,2013-08-02 22:59:00,